This is the latest recevied weather packets stored in our database for station/object KD0RIH. If no packets are shown the sender has not sent any weather packets the latest 10 day(s).
| Time | Temp. | Humidity | Pressure | Rain* | Wind** | Luminosity | Snow |
|---|---|---|---|---|---|---|---|
| 1777855679 | 23.89° C | 36% | 1008.3 hPa | 0 mm | - | 17 W/m² | - |
| 1777855376 | 24.44° C | 35% | 1008.2 hPa | 0 mm | - | 23 W/m² | - |
| 1777855072 | 24.44° C | 35% | 1008.1 hPa | 0 mm | - | 31 W/m² | - |
| 1777854769 | 25° C | 34% | 1008.4 hPa | 0 mm | - | 39 W/m² | - |
| 1777854466 | 25° C | 33% | 1008.4 hPa | 0 mm | - | 42 W/m² | - |
| 1777854163 | 25.56° C | 34% | 1008.3 hPa | 0 mm | - | 45 W/m² | - |
| 1777853861 | 25.56° C | 34% | 1008.4 hPa | 0 mm | - | 54 W/m² | - |
| 1777853557 | 25.56° C | 34% | 1008.5 hPa | 0 mm | - | 67 W/m² | - |
| 1777853254 | 26.11° C | 33% | 1008.4 hPa | 0 mm | - | 79 W/m² | - |
| 1777852951 | 26.11° C | 32% | 1008.4 hPa | 0 mm | - | 82 W/m² | - |
| 1777852649 | 26.67° C | 30% | 1008.6 hPa | 0 mm | - | 84 W/m² | - |
| 1777852346 | 27.22° C | 30% | 1008.5 hPa | 0 mm | - | 104 W/m² | - |
| 1777852044 | 26.67° C | 31% | 1008.5 hPa | 0 mm | - | 108 W/m² | - |
| 1777851742 | 26.67° C | 30% | 1008.6 hPa | 0 mm | - | 108 W/m² | - |
| 1777851439 | 26.67° C | 30% | 1008.7 hPa | 0 mm | - | 124 W/m² | - |
| 1777851134 | 26.67° C | 30% | 1008.6 hPa | 0 mm | - | 135 W/m² | - |
| 1777850831 | 26.67° C | 30% | 1008.6 hPa | 0 mm | - | 147 W/m² | - |
| 1777850528 | 27.22° C | 30% | 1008.7 hPa | 0 mm | - | 141 W/m² | - |
| 1777850227 | 27.22° C | 29% | 1008.7 hPa | 0 mm | - | 146 W/m² | - |
| 1777849923 | 27.22° C | 29% | 1008.7 hPa | 0 mm | - | 241 W/m² | - |
| 1777849619 | 27.78° C | 28% | 1008.8 hPa | 0 mm | - | 125 W/m² | - |
| 1777849316 | 28.33° C | 28% | 1008.7 hPa | 0 mm | - | 241 W/m² | - |
| 1777849014 | 28.33° C | 27% | 1008.9 hPa | 0 mm | - | 231 W/m² | - |
| 1777848714 | 28.89° C | 27% | 1008.8 hPa | 0 mm | - | 274 W/m² | - |
| 1777848411 | 28.89° C | 27% | 1008.9 hPa | 0 mm | - | 248 W/m² | - |
* Rain latest hour (hover to see other rain measurements)
** Current wind speed in m/s (hover to see current wind gust speed)